Aérodrome :
LOGIN :

S'inscrire | Disclaimer

   EN    FR    IT 

 










Légende :    VFR   VFR Marginal   IFR   IFR Intensif   IFR Très Intensif
Visi : 
Plafond : 
>= 8 km
>= 3000ft
5 à 8 km
1000 à 3000 ft
1500m à 5 km
500 à 1000 ft
800 à 1500m
200 à 500 ft
< 800m
< 200 ft
Symboles :   Orages  Brouillard  Fortes neiges  Fortes précipitations  Vent > 20 kt
SIGMETs :   Divers  Orages  Givrage  Turbulence  Onde Orograph.  Cendres Volcan.







- Altitude de l'aérodrome : 433 ft
- Voir les cartes d'approche


LFOC - Chateaudun

DERNIER METAR :
  • 170730Z AUTO VRB05KT CAVOK 20/14 Q1018 NOSIG

METARs EXPIRÉS :
  • 170700Z AUTO VRB06KT CAVOK 19/14 Q1018 NOSIG
  • 170630Z AUTO VRB07KT CAVOK 18/13 Q1018 NOSIG
  • 170600Z AUTO VRB06KT CAVOK 18/13 Q1018
  • 170530Z AUTO VRB05KT CAVOK 17/13 Q1018
  • 170500Z AUTO 35006KT 320V060 CAVOK 17/12 Q1017

TAF AMD TAF LFOC
Valide du 17 à 06h jusqu'au 18 à 03h UTC


170555Z 1706/1803 35006KT CAVOK
Pas de NOTAMs connus pour ce terrain.



MET'MAP, la Météo Aéronautique d'un coup d'oeil ! - Copyright ORBIFLY Décembre 2007 - Disclaimer

ORBIFLY MET'MAP TEAM :

Programmation & Développement : Alexandra Zaïnal
Conception & Développement : Baudouin d'Aumeries
Co-Programmation & Développement : Marc-Olivier Méhu
Soutien technique & logistique : Manuel Goepfert

Contact : metmap@orbifly.com




SOURCES & CREDITS :

   NOAA